Time,TemperatureF,DewpointF,PressureIn,WindDirection,WindDirectionDegrees,WindSpeedMPH,WindSpeedGustMPH,Humidity,HourlyPrecipIn,Conditions,Clouds,dailyrainin,SoftwareType,DateUTC
2013-04-27 00:03:00,36.5,16.1,29.44,NNW,340,0.0,0.0,43,0.00,CLR,,0.00,WeatherDisplay:10.37,2013-04-27 08:03:00,
2013-04-27 00:08:00,36.3,15.4,29.44,NNW,339,0.0,0.0,42,0.00,CLR,,0.00,WeatherDisplay:10.37,2013-04-27 08:08:00,
2013-04-27 00:13:00,36.4,16.0,29.44,NNW,340,0.0,0.0,43,0.00,CLR,,0.00,WeatherDisplay:10.37,2013-04-27 08:13:00,
2013-04-27 00:18:00,36.3,15.9,29.44,NNW,338,0.0,0.0,43,0.00,CLR,,0.00,WeatherDisplay:10.37,2013-04-27 08:18:00,
2013-04-27 00:23:00,36.1,15.7,29.44,NNW,340,0.0,0.0,43,0.00,CLR,,0.00,WeatherDisplay:10.37,2013-04-27 08:23:00,
2013-04-27 00:28:00,36.1,16.3,29.44,NNW,340,0.0,0.0,44,0.00,CLR,,0.00,WeatherDisplay:10.37,2013-04-27 08:28:00,
2013-04-27 00:33:00,35.8,16.0,29.44,NNW,340,0.0,0.0,44,0.00,CLR,,0.00,WeatherDisplay:10.37,2013-04-27 08:33:00,
2013-04-27 00:38:00,35.8,16.5,29.45,NNW,339,0.0,0.0,45,0.00,CLR,,0.00,WeatherDisplay:10.37,2013-04-27 08:38:00,
2013-04-27 00:43:00,35.9,16.1,29.45,NNW,339,0.0,0.0,44,0.00,CLR,,0.00,WeatherDisplay:10.37,2013-04-27 08:43:00,
2013-04-27 00:48:00,36.0,16.2,29.44,NNW,339,0.0,0.0,44,0.00,CLR,,0.00,WeatherDisplay:10.37,2013-04-27 08:48:00,
2013-04-27 00:53:00,35.8,16.0,29.44,NNW,339,0.0,0.0,44,0.00,CLR,,0.00,WeatherDisplay:10.37,2013-04-27 08:53:00,
2013-04-27 00:58:00,35.6,16.3,29.44,NNW,339,0.0,0.0,45,0.00,CLR,,0.00,WeatherDisplay:10.37,2013-04-27 08:58:00,
2013-04-27 01:03:00,35.6,15.8,29.45,NNW,339,0.0,0.0,44,0.00,CLR,,0.00,WeatherDisplay:10.37,2013-04-27 09:03:00,
2013-04-27 01:08:00,35.7,15.9,29.45,NNW,340,0.0,0.0,44,0.00,CLR,,0.00,WeatherDisplay:10.37,2013-04-27 09:08:00,
2013-04-27 01:13:00,35.8,15.5,29.45,NNW,339,0.0,0.0,43,0.00,CLR,,0.00,WeatherDisplay:10.37,2013-04-27 09:13:00,
2013-04-27 01:18:00,36.0,15.6,29.45,NNW,341,0.0,0.0,43,0.00,CLR,,0.00,WeatherDisplay:10.37,2013-04-27 09:18:00,
2013-04-27 01:23:00,36.0,16.2,29.45,NNW,341,0.0,0.0,44,0.00,CLR,,0.00,WeatherDisplay:10.37,2013-04-27 09:23:00,
2013-04-27 01:28:00,35.8,16.0,29.46,NNW,341,0.0,0.0,44,0.00,CLR,,0.00,WeatherDisplay:10.37,2013-04-27 09:28:00,
2013-04-27 01:33:00,35.9,16.1,29.46,NNW,341,0.0,0.0,44,0.00,CLR,,0.00,WeatherDisplay:10.37,2013-04-27 09:33:00,
2013-04-27 01:38:00,35.9,15.5,29.46,NNW,339,0.0,0.0,43,0.00,CLR,,0.00,WeatherDisplay:10.37,2013-04-27 09:38:00,
2013-04-27 01:43:00,36.0,15.6,29.46,NNW,340,0.0,0.0,43,0.00,CLR,,0.00,WeatherDisplay:10.37,2013-04-27 09:43:00,
2013-04-27 01:48:00,36.1,15.7,29.47,NNW,340,0.0,0.0,43,0.00,CLR,,0.00,WeatherDisplay:10.37,2013-04-27 09:48:00,
2013-04-27 01:53:00,36.0,16.2,29.47,NNW,341,0.0,0.0,44,0.00,CLR,,0.00,WeatherDisplay:10.37,2013-04-27 09:53:00,
2013-04-27 01:58:00,35.9,16.1,29.47,NNW,340,0.0,0.0,44,0.00,CLR,,0.00,WeatherDisplay:10.37,2013-04-27 09:58:00,
2013-04-27 02:03:00,35.9,15.5,29.47,NNW,339,0.0,0.0,43,0.00,CLR,,0.00,WeatherDisplay:10.37,2013-04-27 10:03:00,
2013-04-27 02:08:00,35.8,16.5,29.47,NNW,340,0.0,0.0,45,0.00,CLR,,0.00,WeatherDisplay:10.37,2013-04-27 10:08:00,
2013-04-27 02:13:00,35.6,16.3,29.48,NNW,340,0.0,0.0,45,0.00,CLR,,0.00,WeatherDisplay:10.37,2013-04-27 10:13:00,
2013-04-27 02:18:00,35.5,16.2,29.47,NNW,341,0.0,0.0,45,0.00,CLR,,0.00,WeatherDisplay:10.37,2013-04-27 10:18:00,
2013-04-27 02:23:00,35.6,15.8,29.48,NNW,340,0.0,0.0,44,0.00,CLR,,0.00,WeatherDisplay:10.37,2013-04-27 10:23:00,
2013-04-27 02:28:00,35.6,15.8,29.48,NNW,341,0.0,0.0,44,0.00,CLR,,0.00,WeatherDisplay:10.37,2013-04-27 10:28:00,
2013-04-27 02:33:00,35.5,16.2,29.48,NNW,341,0.0,0.0,45,0.00,CLR,,0.00,WeatherDisplay:10.37,2013-04-27 10:33:00,
2013-04-27 02:38:00,35.3,16.0,29.48,NNW,341,0.0,0.0,45,0.00,CLR,,0.00,WeatherDisplay:10.37,2013-04-27 10:38:00,
2013-04-27 02:43:00,35.4,15.6,29.48,NNW,340,0.0,0.0,44,0.00,CLR,,0.00,WeatherDisplay:10.37,2013-04-27 10:43:00,
2013-04-27 02:48:00,35.5,15.7,29.48,NNW,341,0.0,0.0,44,0.00,CLR,,0.00,WeatherDisplay:10.37,2013-04-27 10:48:00,
2013-04-27 02:53:00,35.5,15.7,29.48,NNW,340,0.0,0.0,44,0.00,CLR,,0.00,WeatherDisplay:10.37,2013-04-27 10:53:00,
2013-04-27 02:58:00,35.5,15.7,29.48,NNW,340,0.0,0.0,44,0.00,CLR,,0.00,WeatherDisplay:10.37,2013-04-27 10:58:00,
2013-04-27 03:03:00,35.5,15.7,29.48,NNW,340,0.0,0.0,44,0.00,CLR,,0.00,WeatherDisplay:10.37,2013-04-27 11:03:00,
2013-04-27 03:08:00,35.4,16.1,29.48,NNW,341,0.0,0.0,45,0.00,CLR,,0.00,WeatherDisplay:10.37,2013-04-27 11:08:00,
2013-04-27 03:13:00,35.2,16.0,29.48,NNW,342,0.0,0.0,45,0.00,CLR,,0.00,WeatherDisplay:10.37,2013-04-27 11:13:00,
2013-04-27 03:18:00,35.3,15.5,29.48,NNW,341,0.0,0.0,44,0.00,CLR,,0.00,WeatherDisplay:10.37,2013-04-27 11:18:00,
2013-04-27 03:23:00,35.3,16.0,29.48,NNW,341,0.0,0.0,45,0.00,CLR,,0.00,WeatherDisplay:10.37,2013-04-27 11:23:00,
2013-04-27 03:28:00,35.1,15.9,29.48,NNW,341,0.0,0.0,45,0.00,CLR,,0.00,WeatherDisplay:10.37,2013-04-27 11:28:00,
2013-04-27 03:33:00,35.0,15.8,29.48,NNW,341,0.0,0.0,45,0.00,CLR,,0.00,WeatherDisplay:10.37,2013-04-27 11:33:00,
2013-04-27 03:38:00,35.1,15.9,29.48,NNW,340,0.0,0.0,45,0.00,CLR,,0.00,WeatherDisplay:10.37,2013-04-27 11:38:00,
2013-04-27 03:43:00,35.1,15.9,29.48,NNW,340,0.0,0.0,45,0.00,CLR,,0.00,WeatherDisplay:10.37,2013-04-27 11:43:00,
2013-04-27 03:48:00,35.0,15.8,29.48,NNW,340,0.0,0.0,45,0.00,CLR,,0.00,WeatherDisplay:10.37,2013-04-27 11:48:00,
2013-04-27 03:53:00,35.1,15.3,29.48,NNW,340,0.0,0.0,44,0.00,CLR,,0.00,WeatherDisplay:10.37,2013-04-27 11:53:00,
2013-04-27 03:58:00,35.2,15.4,29.49,NNW,341,0.0,0.0,44,0.00,CLR,,0.00,WeatherDisplay:10.37,2013-04-27 11:58:00,
2013-04-27 04:03:00,35.2,16.0,29.49,NNW,340,0.0,0.0,45,0.00,CLR,,0.00,WeatherDisplay:10.37,2013-04-27 12:03:00,
2013-04-27 04:08:00,34.9,15.7,29.49,NNW,341,0.0,0.0,45,0.00,CLR,,0.00,WeatherDisplay:10.37,2013-04-27 12:08:00,
2013-04-27 04:13:00,34.8,15.6,29.49,NNW,341,0.0,0.0,45,0.00,CLR,,0.00,WeatherDisplay:10.37,2013-04-27 12:13:00,
2013-04-27 04:18:00,34.8,16.1,29.49,NNW,341,0.0,0.0,46,0.00,CLR,,0.00,WeatherDisplay:10.37,2013-04-27 12:18:00,
2013-04-27 04:23:00,34.7,16.5,29.49,NNW,341,0.0,0.0,47,0.00,CLR,,0.00,WeatherDisplay:10.37,2013-04-27 12:23:00,
2013-04-27 04:28:00,34.7,15.5,29.49,NNW,341,0.0,0.0,45,0.00,CLR,,0.00,WeatherDisplay:10.37,2013-04-27 12:28:00,
2013-04-27 04:33:00,35.0,15.8,29.49,NNW,341,0.0,0.0,45,0.00,CLR,,0.00,WeatherDisplay:10.37,2013-04-27 12:33:00,
2013-04-27 04:38:00,35.0,15.3,29.49,NNW,341,0.0,0.0,44,0.00,CLR,,0.00,WeatherDisplay:10.37,2013-04-27 12:38:00,
2013-04-27 04:43:00,35.1,15.9,29.49,NNW,341,0.0,0.0,45,0.00,CLR,,0.00,WeatherDisplay:10.37,2013-04-27 12:43:00,
2013-04-27 04:48:00,35.0,15.8,29.49,NNW,340,0.0,0.0,45,0.00,CLR,,0.00,WeatherDisplay:10.37,2013-04-27 12:48:00,
2013-04-27 04:53:00,35.0,15.3,29.49,NNW,341,0.0,0.0,44,0.00,CLR,,0.00,WeatherDisplay:10.37,2013-04-27 12:53:00,
2013-04-27 04:58:00,34.8,15.6,29.50,NNW,341,0.0,0.0,45,0.00,CLR,,0.00,WeatherDisplay:10.37,2013-04-27 12:58:00,
2013-04-27 05:03:00,34.8,15.6,29.50,NNW,340,0.0,0.0,45,0.00,CLR,,0.00,WeatherDisplay:10.37,2013-04-27 13:03:00,
2013-04-27 05:08:00,34.7,15.5,29.50,NNW,340,0.0,0.0,45,0.00,CLR,,0.00,WeatherDisplay:10.37,2013-04-27 13:08:00,
2013-04-27 05:13:00,34.7,15.5,29.50,NNW,340,0.0,0.0,45,0.00,CLR,,0.00,WeatherDisplay:10.37,2013-04-27 13:13:00,
2013-04-27 05:18:00,34.7,15.5,29.50,NNW,342,0.0,0.0,45,0.00,CLR,,0.00,WeatherDisplay:10.37,2013-04-27 13:18:00,
2013-04-27 05:23:00,34.7,15.5,29.50,NNW,341,0.0,0.0,45,0.00,CLR,,0.00,WeatherDisplay:10.37,2013-04-27 13:23:00,
2013-04-27 05:28:00,34.8,15.1,29.51,NNW,339,0.0,0.0,44,0.00,CLR,,0.00,WeatherDisplay:10.37,2013-04-27 13:28:00,
2013-04-27 05:33:00,34.9,15.2,29.51,NNW,341,0.0,0.0,44,0.00,CLR,,0.00,WeatherDisplay:10.37,2013-04-27 13:33:00,
2013-04-27 05:38:00,34.7,15.5,29.51,NNW,341,0.0,0.0,45,0.00,CLR,,0.00,WeatherDisplay:10.37,2013-04-27 13:38:00,
2013-04-27 05:43:00,34.4,16.2,29.51,NNW,340,0.0,0.0,47,0.00,CLR,,0.00,WeatherDisplay:10.37,2013-04-27 13:43:00,
2013-04-27 05:48:00,34.4,15.2,29.51,NNW,341,0.0,0.0,45,0.00,CLR,,0.00,WeatherDisplay:10.37,2013-04-27 13:48:00,
2013-04-27 05:53:00,34.4,15.2,29.51,NNW,340,0.0,0.0,45,0.00,CLR,,0.00,WeatherDisplay:10.37,2013-04-27 13:53:00,
2013-04-27 05:58:00,34.4,15.7,29.52,NNW,339,0.0,0.0,46,0.00,CLR,,0.00,WeatherDisplay:10.37,2013-04-27 13:58:00,
2013-04-27 06:03:00,34.4,15.2,29.52,NNW,341,0.0,0.0,45,0.00,CLR,,0.00,WeatherDisplay:10.37,2013-04-27 14:03:00,
2013-04-27 06:08:00,34.4,15.7,29.52,NNW,341,0.0,0.0,46,0.00,CLR,,0.00,WeatherDisplay:10.37,2013-04-27 14:08:00,
2013-04-27 06:13:00,34.4,15.2,29.52,NNW,341,0.0,0.0,45,0.00,CLR,,0.00,WeatherDisplay:10.37,2013-04-27 14:13:00,
2013-04-27 06:18:00,34.4,15.2,29.52,NNW,342,0.0,0.0,45,0.00,CLR,,0.00,WeatherDisplay:10.37,2013-04-27 14:18:00,
2013-04-27 06:23:00,34.4,15.7,29.53,NNW,341,0.0,0.0,46,0.00,CLR,,0.00,WeatherDisplay:10.37,2013-04-27 14:23:00,
2013-04-27 06:28:00,34.1,15.5,29.53,NNW,341,0.0,0.0,46,0.00,CLR,,0.00,WeatherDisplay:10.37,2013-04-27 14:28:00,
2013-04-27 06:33:00,33.6,16.5,29.53,NNW,341,0.0,0.0,49,0.00,CLR,,0.00,WeatherDisplay:10.37,2013-04-27 14:33:00,
2013-04-27 06:38:00,33.3,15.7,29.53,NNW,341,0.0,0.0,48,0.00,CLR,,0.00,WeatherDisplay:10.37,2013-04-27 14:38:00,
2013-04-27 06:43:00,33.4,14.8,29.53,NNW,340,0.0,0.0,46,0.00,CLR,,0.00,WeatherDisplay:10.37,2013-04-27 14:43:00,
2013-04-27 06:48:00,33.7,15.1,29.54,NNW,341,0.0,0.0,46,0.00,CLR,,0.00,WeatherDisplay:10.37,2013-04-27 14:48:00,
2013-04-27 06:53:00,33.8,15.2,29.53,NNW,341,0.0,0.0,46,0.00,CLR,,0.00,WeatherDisplay:10.37,2013-04-27 14:53:00,
2013-04-27 06:58:00,33.9,14.8,29.54,NNW,340,0.0,0.0,45,0.00,CLR,,0.00,WeatherDisplay:10.37,2013-04-27 14:58:00,
2013-04-27 07:03:00,34.0,14.9,29.54,NNW,340,0.0,0.0,45,0.00,CLR,,0.00,WeatherDisplay:10.37,2013-04-27 15:03:00,
2013-04-27 07:08:00,34.0,14.9,29.54,NNW,339,0.0,0.0,45,0.00,CLR,,0.00,WeatherDisplay:10.37,2013-04-27 15:08:00,
2013-04-27 07:13:00,33.9,15.3,29.54,NNW,339,0.0,0.0,46,0.00,CLR,,0.00,WeatherDisplay:10.37,2013-04-27 15:13:00,
2013-04-27 07:18:00,33.9,14.8,29.54,NNW,337,0.0,0.0,45,0.00,CLR,,0.00,WeatherDisplay:10.37,2013-04-27 15:18:00,
2013-04-27 07:23:00,34.1,14.9,29.55,NNW,339,0.0,0.0,45,0.00,CLR,,0.00,WeatherDisplay:10.37,2013-04-27 15:23:00,
2013-04-27 07:28:00,34.1,15.5,29.55,NNW,339,0.0,0.0,46,0.00,CLR,,0.00,WeatherDisplay:10.37,2013-04-27 15:28:00,
2013-04-27 07:33:00,34.2,16.0,29.55,NNW,339,0.0,0.0,47,0.00,CLR,,0.00,WeatherDisplay:10.37,2013-04-27 15:33:00,
2013-04-27 07:38:00,34.3,15.6,29.55,NNW,338,0.0,0.0,46,0.00,CLR,,0.00,WeatherDisplay:10.37,2013-04-27 15:38:00,
2013-04-27 07:43:00,34.4,16.2,29.55,NNW,339,0.0,0.0,47,0.00,CLR,,0.00,WeatherDisplay:10.37,2013-04-27 15:43:00,
2013-04-27 07:48:00,34.4,16.2,29.56,NNW,340,0.0,0.0,47,0.00,CLR,,0.00,WeatherDisplay:10.37,2013-04-27 15:48:00,
2013-04-27 07:53:00,34.4,15.7,29.56,NNW,339,0.0,0.0,46,0.00,CLR,,0.00,WeatherDisplay:10.37,2013-04-27 15:53:00,
2013-04-27 07:58:00,34.4,15.7,29.56,NNW,339,0.0,0.0,46,0.00,CLR,,0.00,WeatherDisplay:10.37,2013-04-27 15:58:00,
2013-04-27 08:03:00,34.4,15.7,29.56,NNW,339,0.0,0.0,46,0.00,CLR,,0.00,WeatherDisplay:10.37,2013-04-27 16:03:00,
2013-04-27 08:08:00,34.4,15.7,29.56,NNW,340,0.0,0.0,46,0.00,CLR,,0.00,WeatherDisplay:10.37,2013-04-27 16:08:00,
2013-04-27 08:13:00,34.4,15.7,29.56,NNW,339,0.0,0.0,46,0.00,CLR,,0.00,WeatherDisplay:10.37,2013-04-27 16:13:00,
2013-04-27 08:18:00,34.4,15.7,29.57,NNW,340,0.0,0.0,46,0.00,CLR,,0.00,WeatherDisplay:10.37,2013-04-27 16:18:00,
2013-04-27 08:23:00,34.4,16.2,29.57,NNW,339,0.0,0.0,47,0.00,CLR,,0.00,WeatherDisplay:10.37,2013-04-27 16:23:00,
2013-04-27 08:28:00,34.4,16.2,29.57,NNW,340,0.0,0.0,47,0.00,CLR,,0.00,WeatherDisplay:10.37,2013-04-27 16:28:00,
2013-04-27 08:33:00,34.4,15.7,29.57,NNW,340,0.0,0.0,46,0.00,CLR,,0.00,WeatherDisplay:10.37,2013-04-27 16:33:00,
2013-04-27 08:38:00,34.4,15.7,29.57,NNW,340,0.0,0.0,46,0.00,CLR,,0.00,WeatherDisplay:10.37,2013-04-27 16:38:00,
2013-04-27 08:43:00,34.4,16.2,29.58,NNW,341,0.0,0.0,47,0.00,CLR,,0.00,WeatherDisplay:10.37,2013-04-27 16:43:00,
2013-04-27 08:48:00,34.4,16.2,29.58,NNW,340,0.0,0.0,47,0.00,CLR,,0.00,WeatherDisplay:10.37,2013-04-27 16:48:00,
2013-04-27 08:53:00,34.6,15.9,29.58,NNW,340,0.0,0.0,46,0.00,CLR,,0.00,WeatherDisplay:10.37,2013-04-27 16:53:00,
2013-04-27 08:58:00,34.7,15.5,29.58,NNW,341,0.0,0.0,45,0.00,CLR,,0.00,WeatherDisplay:10.37,2013-04-27 16:58:00,
2013-04-27 09:03:00,34.9,15.7,29.58,NNW,341,0.0,0.0,45,0.00,CLR,,0.00,WeatherDisplay:10.37,2013-04-27 17:03:00,
2013-04-27 09:08:00,35.0,16.3,29.59,NNW,339,0.0,0.0,46,0.00,CLR,,0.00,WeatherDisplay:10.37,2013-04-27 17:08:00,
2013-04-27 09:13:00,35.0,16.3,29.59,NNW,340,0.0,0.0,46,0.00,CLR,,0.00,WeatherDisplay:10.37,2013-04-27 17:13:00,
2013-04-27 09:18:00,34.9,15.7,29.59,NNW,337,0.0,0.0,45,0.00,CLR,,0.00,WeatherDisplay:10.37,2013-04-27 17:18:00,
2013-04-27 09:23:00,34.9,15.2,29.59,NNW,338,0.0,0.0,44,0.00,CLR,,0.00,WeatherDisplay:10.37,2013-04-27 17:23:00,
2013-04-27 09:28:00,35.3,16.6,29.59,NNW,339,0.0,0.0,46,0.00,CLR,,0.00,WeatherDisplay:10.37,2013-04-27 17:28:00,
2013-04-27 09:33:00,35.6,16.3,29.60,NNW,339,0.0,0.0,45,0.00,CLR,,0.00,WeatherDisplay:10.37,2013-04-27 17:33:00,
2013-04-27 09:38:00,35.7,16.9,29.60,NNW,339,0.0,0.0,46,0.00,CLR,,0.00,WeatherDisplay:10.37,2013-04-27 17:38:00,
2013-04-27 09:43:00,35.6,15.8,29.60,NNW,339,0.0,0.0,44,0.00,CLR,,0.00,WeatherDisplay:10.37,2013-04-27 17:43:00,
2013-04-27 09:48:00,35.7,15.9,29.60,NNW,339,0.0,0.0,44,0.00,CLR,,0.00,WeatherDisplay:10.37,2013-04-27 17:48:00,
2013-04-27 09:53:00,35.9,15.5,29.60,NNW,339,0.0,0.0,43,0.00,CLR,,0.00,WeatherDisplay:10.37,2013-04-27 17:53:00,
2013-04-27 09:58:00,35.7,15.4,29.60,NNW,339,0.0,0.0,43,0.00,CLR,,0.00,WeatherDisplay:10.37,2013-04-27 17:58:00,
2013-04-27 10:03:00,36.0,16.7,29.60,NNW,340,0.0,0.0,45,0.00,CLR,,0.00,WeatherDisplay:10.37,2013-04-27 18:03:00,
2013-04-27 10:08:00,36.2,16.4,29.61,NNW,339,0.0,0.0,44,0.00,CLR,,0.00,WeatherDisplay:10.37,2013-04-27 18:08:00,
2013-04-27 10:13:00,36.0,15.1,29.60,NNW,339,0.0,0.0,42,0.00,CLR,,0.00,WeatherDisplay:10.37,2013-04-27 18:13:00,
2013-04-27 10:18:00,35.8,15.5,29.60,NNW,337,0.0,0.0,43,0.00,CLR,,0.00,WeatherDisplay:10.37,2013-04-27 18:18:00,
2013-04-27 10:23:00,35.8,15.5,29.61,NNW,339,0.0,0.0,43,0.00,CLR,,0.00,WeatherDisplay:10.37,2013-04-27 18:23:00,
2013-04-27 10:28:00,35.9,15.0,29.60,NNW,339,0.0,0.0,42,0.00,CLR,,0.00,WeatherDisplay:10.37,2013-04-27 18:28:00,
2013-04-27 10:33:00,35.8,15.5,29.61,NNW,340,0.0,0.0,43,0.00,CLR,,0.00,WeatherDisplay:10.37,2013-04-27 18:33:00,
2013-04-27 10:38:00,35.9,16.1,29.61,NNW,339,0.0,0.0,44,0.00,CLR,,0.00,WeatherDisplay:10.37,2013-04-27 18:38:00,
2013-04-27 10:43:00,36.0,16.2,29.61,NNW,341,0.0,0.0,44,0.00,CLR,,0.00,WeatherDisplay:10.37,2013-04-27 18:43:00,
2013-04-27 10:48:00,36.1,16.8,29.61,NNW,341,0.0,0.0,45,0.00,CLR,,0.00,WeatherDisplay:10.37,2013-04-27 18:48:00,
2013-04-27 10:53:00,36.3,16.4,29.61,NNW,341,0.0,0.0,44,0.00,CLR,,0.00,WeatherDisplay:10.37,2013-04-27 18:53:00,
2013-04-27 10:58:00,36.7,16.8,29.62,NNW,340,0.0,0.0,44,0.00,CLR,,0.00,WeatherDisplay:10.37,2013-04-27 18:58:00,
2013-04-27 11:03:00,36.7,16.8,29.62,NNW,340,0.0,0.0,44,0.00,CLR,,0.00,WeatherDisplay:10.37,2013-04-27 19:03:00,
2013-04-27 11:08:00,36.7,16.3,29.62,NNW,340,0.0,0.0,43,0.00,CLR,,0.00,WeatherDisplay:10.37,2013-04-27 19:08:00,
2013-04-27 11:13:00,36.6,16.2,29.62,NNW,339,0.0,0.0,43,0.00,CLR,,0.00,WeatherDisplay:10.37,2013-04-27 19:13:00,
2013-04-27 11:18:00,36.8,16.9,29.62,NNW,339,0.0,0.0,44,0.00,CLR,,0.00,WeatherDisplay:10.37,2013-04-27 19:18:00,
2013-04-27 11:23:00,37.0,16.5,29.62,NNW,340,0.0,0.0,43,0.00,CLR,,0.00,WeatherDisplay:10.37,2013-04-27 19:23:00,
2013-04-27 11:28:00,37.4,15.8,29.63,NNW,339,0.0,0.0,41,0.00,CLR,,0.00,WeatherDisplay:10.37,2013-04-27 19:28:00,
2013-04-27 11:33:00,37.3,16.8,29.63,NNW,340,0.0,0.0,43,0.00,CLR,,0.00,WeatherDisplay:10.37,2013-04-27 19:33:00,
2013-04-27 11:38:00,37.5,17.0,29.63,NNW,341,0.0,0.0,43,0.00,CLR,,0.00,WeatherDisplay:10.37,2013-04-27 19:38:00,
2013-04-27 11:43:00,37.3,15.7,29.64,NNW,341,0.0,0.0,41,0.00,CLR,,0.00,WeatherDisplay:10.37,2013-04-27 19:43:00,
2013-04-27 11:48:00,37.5,16.5,29.63,NNW,341,0.0,0.0,42,0.00,CLR,,0.00,WeatherDisplay:10.37,2013-04-27 19:48:00,
2013-04-27 11:53:00,37.3,16.8,29.64,NNW,341,0.0,0.0,43,0.00,CLR,,0.00,WeatherDisplay:10.37,2013-04-27 19:53:00,
2013-04-27 11:58:00,37.1,16.1,29.64,NNW,339,0.0,0.0,42,0.00,CLR,,0.00,WeatherDisplay:10.37,2013-04-27 19:58:00,
2013-04-27 12:03:00,37.0,17.1,29.64,NNW,340,0.0,0.0,44,0.00,CLR,,0.00,WeatherDisplay:10.37,2013-04-27 20:03:00,
2013-04-27 12:08:00,36.8,16.9,29.64,NNW,341,0.0,0.0,44,0.00,CLR,,0.00,WeatherDisplay:10.37,2013-04-27 20:08:00,
2013-04-27 12:13:00,36.8,16.9,29.65,NNW,339,0.0,0.0,44,0.00,CLR,,0.00,WeatherDisplay:10.37,2013-04-27 20:13:00,
2013-04-27 12:18:00,36.9,16.5,29.65,NNW,340,0.0,0.0,43,0.00,CLR,,0.00,WeatherDisplay:10.37,2013-04-27 20:18:00,
2013-04-27 12:23:00,37.0,16.0,29.65,NNW,341,0.0,0.0,42,0.00,CLR,,0.00,WeatherDisplay:10.37,2013-04-27 20:23:00,
2013-04-27 12:28:00,37.4,18.0,29.65,NNW,341,0.0,0.0,45,0.00,CLR,,0.00,WeatherDisplay:10.37,2013-04-27 20:28:00,
2013-04-27 12:33:00,37.8,17.3,29.66,NNW,340,0.0,0.0,43,0.00,CLR,,0.00,WeatherDisplay:10.37,2013-04-27 20:33:00,
2013-04-27 12:38:00,37.9,17.4,29.66,NNW,339,0.0,0.0,43,0.00,CLR,,0.00,WeatherDisplay:10.37,2013-04-27 20:38:00,
2013-04-27 12:43:00,37.8,17.3,29.66,NNW,339,0.0,0.0,43,0.00,CLR,,0.00,WeatherDisplay:10.37,2013-04-27 20:43:00,
2013-04-27 12:48:00,37.9,16.8,29.65,NNW,341,0.0,0.0,42,0.00,CLR,,0.00,WeatherDisplay:10.37,2013-04-27 20:48:00,
2013-04-27 12:53:00,37.9,17.4,29.66,NNW,340,0.0,0.0,43,0.00,CLR,,0.00,WeatherDisplay:10.37,2013-04-27 20:53:00,
2013-04-27 12:58:00,37.9,16.8,29.66,NNW,341,0.0,0.0,42,0.00,CLR,,0.00,WeatherDisplay:10.37,2013-04-27 20:58:00,
2013-04-27 13:03:00,38.0,17.5,29.66,NNW,341,0.0,0.0,43,0.00,CLR,,0.00,WeatherDisplay:10.37,2013-04-27 21:03:00,
2013-04-27 13:08:00,38.1,17.5,29.66,NNW,341,0.0,0.0,43,0.00,CLR,,0.00,WeatherDisplay:10.37,2013-04-27 21:08:00,
2013-04-27 13:13:00,38.2,17.1,29.66,NNW,339,0.0,0.0,42,0.00,CLR,,0.00,WeatherDisplay:10.37,2013-04-27 21:13:00,
2013-04-27 13:18:00,38.2,17.1,29.67,NNW,340,0.0,0.0,42,0.00,CLR,,0.00,WeatherDisplay:10.37,2013-04-27 21:18:00,
2013-04-27 13:23:00,38.2,16.5,29.66,NNW,341,0.0,0.0,41,0.00,CLR,,0.00,WeatherDisplay:10.37,2013-04-27 21:23:00,
2013-04-27 13:28:00,38.3,17.2,29.66,NNW,341,0.0,0.0,42,0.00,CLR,,0.00,WeatherDisplay:10.37,2013-04-27 21:28:00,
2013-04-27 13:33:00,38.5,17.9,29.66,NNW,340,0.0,0.0,43,0.00,CLR,,0.00,WeatherDisplay:10.37,2013-04-27 21:33:00,
2013-04-27 13:38:00,38.6,16.9,29.67,NNW,339,0.0,0.0,41,0.00,CLR,,0.00,WeatherDisplay:10.37,2013-04-27 21:38:00,
2013-04-27 13:43:00,38.7,17.5,29.67,NNW,339,0.0,0.0,42,0.00,CLR,,0.00,WeatherDisplay:10.37,2013-04-27 21:43:00,
2013-04-27 13:48:00,38.9,18.3,29.67,NNW,340,0.0,0.0,43,0.00,CLR,,0.00,WeatherDisplay:10.37,2013-04-27 21:48:00,
2013-04-27 13:53:00,39.1,17.9,29.67,NNW,340,0.0,0.0,42,0.00,CLR,,0.00,WeatherDisplay:10.37,2013-04-27 21:53:00,
2013-04-27 13:58:00,39.0,17.3,29.67,NNW,339,0.0,0.0,41,0.00,CLR,,0.00,WeatherDisplay:10.37,2013-04-27 21:58:00,
2013-04-27 14:03:00,39.3,17.0,29.67,NNW,339,0.0,0.0,40,0.00,CLR,,0.00,WeatherDisplay:10.37,2013-04-27 22:03:00,
2013-04-27 14:08:00,39.5,17.1,29.67,NNW,340,0.0,0.0,40,0.00,CLR,,0.00,WeatherDisplay:10.37,2013-04-27 22:08:00,
2013-04-27 14:13:00,39.6,16.6,29.68,NNW,340,0.0,0.0,39,0.00,CLR,,0.00,WeatherDisplay:10.37,2013-04-27 22:13:00,
2013-04-27 14:18:00,39.6,16.6,29.67,NNW,341,0.0,0.0,39,0.00,CLR,,0.00,WeatherDisplay:10.37,2013-04-27 22:18:00,
2013-04-27 14:23:00,39.9,16.9,29.68,NNW,341,0.0,0.0,39,0.00,CLR,,0.00,WeatherDisplay:10.37,2013-04-27 22:23:00,
2013-04-27 14:28:00,40.0,16.4,29.68,NNW,337,0.0,0.0,38,0.00,CLR,,0.00,WeatherDisplay:10.37,2013-04-27 22:28:00,
2013-04-27 14:33:00,39.8,16.8,29.68,NNW,338,0.0,0.0,39,0.00,CLR,,0.00,WeatherDisplay:10.37,2013-04-27 22:33:00,
2013-04-27 14:38:00,40.0,17.0,29.68,NNW,338,0.0,0.0,39,0.00,CLR,,0.00,WeatherDisplay:10.37,2013-04-27 22:38:00,
2013-04-27 14:43:00,40.2,17.2,29.69,NNW,338,0.0,0.0,39,0.00,CLR,,0.00,WeatherDisplay:10.37,2013-04-27 22:43:00,
2013-04-27 14:48:00,40.6,16.3,29.68,NNW,337,0.0,0.0,37,0.00,CLR,,0.00,WeatherDisplay:10.37,2013-04-27 22:48:00,
2013-04-27 14:53:00,40.6,16.3,29.69,NNW,339,0.0,0.0,37,0.00,CLR,,0.00,WeatherDisplay:10.37,2013-04-27 22:53:00,
2013-04-27 14:58:00,40.6,15.7,29.69,NNW,339,0.0,0.0,36,0.00,CLR,,0.00,WeatherDisplay:10.37,2013-04-27 22:58:00,
2013-04-27 15:03:00,40.6,16.3,29.69,NNW,338,0.0,0.0,37,0.00,CLR,,0.00,WeatherDisplay:10.37,2013-04-27 23:03:00,
2013-04-27 15:08:00,40.7,16.4,29.69,NNW,339,0.0,0.0,37,0.00,CLR,,0.00,WeatherDisplay:10.37,2013-04-27 23:08:00,
2013-04-27 15:13:00,41.0,16.7,29.69,NNW,339,0.0,0.0,37,0.00,CLR,,0.00,WeatherDisplay:10.37,2013-04-27 23:13:00,
2013-04-27 15:18:00,41.1,16.1,29.70,NNW,339,0.0,0.0,36,0.00,CLR,,0.00,WeatherDisplay:10.37,2013-04-27 23:18:00,
2013-04-27 15:23:00,40.9,16.0,29.70,NNW,339,0.0,0.0,36,0.00,CLR,,0.00,WeatherDisplay:10.37,2013-04-27 23:23:00,
2013-04-27 15:28:00,41.1,16.1,29.70,NNW,339,0.0,0.0,36,0.00,CLR,,0.00,WeatherDisplay:10.37,2013-04-27 23:28:00,
2013-04-27 15:33:00,41.4,17.0,29.70,NNW,340,0.0,0.0,37,0.00,CLR,,0.00,WeatherDisplay:10.37,2013-04-27 23:33:00,
2013-04-27 15:38:00,41.5,17.1,29.70,NNW,339,0.0,0.0,37,0.00,CLR,,0.00,WeatherDisplay:10.37,2013-04-27 23:38:00,
2013-04-27 15:43:00,41.4,16.4,29.70,NNW,338,0.0,0.0,36,0.00,CLR,,0.00,WeatherDisplay:10.37,2013-04-27 23:43:00,
2013-04-27 15:48:00,41.3,16.3,29.70,NNW,338,0.0,0.0,36,0.00,CLR,,0.00,WeatherDisplay:10.37,2013-04-27 23:48:00,
2013-04-27 15:53:00,41.3,17.6,29.70,NNW,338,0.0,0.0,38,0.00,CLR,,0.00,WeatherDisplay:10.37,2013-04-27 23:53:00,
2013-04-27 15:58:00,41.3,16.3,29.70,NNW,339,0.0,0.0,36,0.00,CLR,,0.00,WeatherDisplay:10.37,2013-04-27 23:58:00,
2013-04-27 16:03:00,41.3,16.3,29.70,NNW,339,0.0,0.0,36,0.00,CLR,,0.00,WeatherDisplay:10.37,2013-04-28 00:03:00,
2013-04-27 16:08:00,41.4,15.8,29.71,NNW,339,0.0,0.0,35,0.00,CLR,,0.00,WeatherDisplay:10.37,2013-04-28 00:08:00,
2013-04-27 16:13:00,41.6,15.9,29.70,NNW,340,0.0,0.0,35,0.00,CLR,,0.00,WeatherDisplay:10.37,2013-04-28 00:13:00,
2013-04-27 16:18:00,41.5,15.8,29.71,NNW,339,0.0,0.0,35,0.00,CLR,,0.00,WeatherDisplay:10.37,2013-04-28 00:18:00,
2013-04-27 16:23:00,41.4,16.4,29.71,NNW,339,0.0,0.0,36,0.00,CLR,,0.00,WeatherDisplay:10.37,2013-04-28 00:23:00,
2013-04-27 16:28:00,41.3,15.7,29.71,NNW,338,0.0,0.0,35,0.00,CLR,,0.00,WeatherDisplay:10.37,2013-04-28 00:28:00,
2013-04-27 16:33:00,41.5,15.8,29.71,NNW,337,0.0,0.0,35,0.00,CLR,,0.00,WeatherDisplay:10.37,2013-04-28 00:33:00,
2013-04-27 16:38:00,41.6,15.3,29.71,NNW,340,0.0,0.0,34,0.00,CLR,,0.00,WeatherDisplay:10.37,2013-04-28 00:38:00,
2013-04-27 16:43:00,41.8,14.8,29.71,NNW,339,0.0,0.0,33,0.00,CLR,,0.00,WeatherDisplay:10.37,2013-04-28 00:43:00,
2013-04-27 16:48:00,41.7,16.0,29.71,NNW,339,0.0,0.0,35,0.00,CLR,,0.00,WeatherDisplay:10.37,2013-04-28 00:48:00,
2013-04-27 16:53:00,41.9,16.2,29.71,NNW,339,0.0,0.0,35,0.00,CLR,,0.00,WeatherDisplay:10.37,2013-04-28 00:53:00,
2013-04-27 16:58:00,42.0,15.6,29.71,NNW,340,0.0,0.0,34,0.00,CLR,,0.00,WeatherDisplay:10.37,2013-04-28 00:58:00,
2013-04-27 17:03:00,42.3,16.6,29.71,NNW,340,0.0,0.0,35,0.00,CLR,,0.00,WeatherDisplay:10.37,2013-04-28 01:03:00,
2013-04-27 17:08:00,42.4,16.6,29.71,NNW,340,0.0,0.0,35,0.00,CLR,,0.00,WeatherDisplay:10.37,2013-04-28 01:08:00,
2013-04-27 17:13:00,42.4,16.0,29.71,NNW,341,0.0,0.0,34,0.00,CLR,,0.00,WeatherDisplay:10.37,2013-04-28 01:13:00,
2013-04-27 17:18:00,42.4,15.3,29.71,NNW,339,0.0,0.0,33,0.00,CLR,,0.00,WeatherDisplay:10.37,2013-04-28 01:18:00,
2013-04-27 17:23:00,42.1,16.4,29.71,NNW,338,0.0,0.0,35,0.00,CLR,,0.00,WeatherDisplay:10.37,2013-04-28 01:23:00,
2013-04-27 17:28:00,42.0,15.6,29.72,NNW,338,0.0,0.0,34,0.00,CLR,,0.00,WeatherDisplay:10.37,2013-04-28 01:28:00,
2013-04-27 17:33:00,41.9,15.5,29.71,NNW,337,0.0,0.0,34,0.00,CLR,,0.00,WeatherDisplay:10.37,2013-04-28 01:33:00,
2013-04-27 17:38:00,41.9,16.2,29.71,NNW,339,0.0,0.0,35,0.00,CLR,,0.00,WeatherDisplay:10.37,2013-04-28 01:38:00,
2013-04-27 17:43:00,41.8,14.8,29.72,NNW,339,0.0,0.0,33,0.00,CLR,,0.00,WeatherDisplay:10.37,2013-04-28 01:43:00,
2013-04-27 17:48:00,41.6,15.9,29.72,NNW,337,0.0,0.0,35,0.00,CLR,,0.00,WeatherDisplay:10.37,2013-04-28 01:48:00,
2013-04-27 17:53:00,41.6,15.9,29.72,NNW,339,0.0,0.0,35,0.00,CLR,,0.00,WeatherDisplay:10.37,2013-04-28 01:53:00,
2013-04-27 17:58:00,41.4,15.1,29.72,NNW,339,0.0,0.0,34,0.00,CLR,,0.00,WeatherDisplay:10.37,2013-04-28 01:58:00,
2013-04-27 18:03:00,41.5,15.8,29.72,NNW,339,0.0,0.0,35,0.00,CLR,,0.00,WeatherDisplay:10.37,2013-04-28 02:03:00,
2013-04-27 18:08:00,41.5,15.8,29.72,NNW,339,0.0,0.0,35,0.00,CLR,,0.00,WeatherDisplay:10.37,2013-04-28 02:08:00,
2013-04-27 18:13:00,41.2,16.2,29.72,NNW,339,0.0,0.0,36,0.00,CLR,,0.00,WeatherDisplay:10.37,2013-04-28 02:13:00,
2013-04-27 18:18:00,41.1,16.1,29.72,NNW,338,0.0,0.0,36,0.00,CLR,,0.00,WeatherDisplay:10.37,2013-04-28 02:18:00,
2013-04-27 18:23:00,41.0,16.0,29.72,NNW,339,0.0,0.0,36,0.00,CLR,,0.00,WeatherDisplay:10.37,2013-04-28 02:23:00,
2013-04-27 18:28:00,41.1,15.5,29.72,NNW,338,0.0,0.0,35,0.00,CLR,,0.00,WeatherDisplay:10.37,2013-04-28 02:28:00,
2013-04-27 18:33:00,41.1,15.5,29.72,NNW,338,0.0,0.0,35,0.00,CLR,,0.00,WeatherDisplay:10.37,2013-04-28 02:33:00,
2013-04-27 18:38:00,41.0,16.0,29.72,NNW,339,0.0,0.0,36,0.00,CLR,,0.00,WeatherDisplay:10.37,2013-04-28 02:38:00,
2013-04-27 18:43:00,40.8,16.5,29.72,NNW,339,0.0,0.0,37,0.00,CLR,,0.00,WeatherDisplay:10.37,2013-04-28 02:43:00,
2013-04-27 18:48:00,40.7,16.4,29.72,NNW,340,0.0,0.0,37,0.00,CLR,,0.00,WeatherDisplay:10.37,2013-04-28 02:48:00,
2013-04-27 18:53:00,40.7,16.4,29.72,NNW,338,0.0,0.0,37,0.00,CLR,,0.00,WeatherDisplay:10.37,2013-04-28 02:53:00,
2013-04-27 18:58:00,40.7,16.4,29.72,NNW,337,0.0,0.0,37,0.00,CLR,,0.00,WeatherDisplay:10.37,2013-04-28 02:58:00,
2013-04-27 19:03:00,40.6,16.3,29.73,NNW,339,0.0,0.0,37,0.00,CLR,,0.00,WeatherDisplay:10.37,2013-04-28 03:03:00,
2013-04-27 19:08:00,40.6,16.3,29.72,NNW,337,0.0,0.0,37,0.00,CLR,,0.00,WeatherDisplay:10.37,2013-04-28 03:08:00,
2013-04-27 19:13:00,40.6,16.9,29.73,NNW,339,0.0,0.0,38,0.00,CLR,,0.00,WeatherDisplay:10.37,2013-04-28 03:13:00,
2013-04-27 19:18:00,40.6,16.3,29.73,NNW,339,0.0,0.0,37,0.00,CLR,,0.00,WeatherDisplay:10.37,2013-04-28 03:18:00,
2013-04-27 19:23:00,40.5,16.9,29.73,NNW,339,0.0,0.0,38,0.00,CLR,,0.00,WeatherDisplay:10.37,2013-04-28 03:23:00,
2013-04-27 19:28:00,40.5,16.2,29.73,NNW,338,0.0,0.0,37,0.00,CLR,,0.00,WeatherDisplay:10.37,2013-04-28 03:28:00,
2013-04-27 19:33:00,40.6,16.9,29.73,NNW,337,0.0,0.0,38,0.00,CLR,,0.00,WeatherDisplay:10.37,2013-04-28 03:33:00,
2013-04-27 19:38:00,40.5,16.9,29.73,NNW,339,0.0,0.0,38,0.00,CLR,,0.00,WeatherDisplay:10.37,2013-04-28 03:38:00,
2013-04-27 19:43:00,40.5,16.9,29.73,NNW,337,0.0,0.0,38,0.00,CLR,,0.00,WeatherDisplay:10.37,2013-04-28 03:43:00,
2013-04-27 19:48:00,40.4,16.8,29.73,NNW,338,0.0,0.0,38,0.00,CLR,,0.00,WeatherDisplay:10.37,2013-04-28 03:48:00,
2013-04-27 19:53:00,40.5,16.9,29.73,NNW,338,0.0,0.0,38,0.00,CLR,,0.00,WeatherDisplay:10.37,2013-04-28 03:53:00,
2013-04-27 19:58:00,40.5,16.9,29.73,NNW,337,0.0,0.0,38,0.00,CLR,,0.00,WeatherDisplay:10.37,2013-04-28 03:58:00,
2013-04-27 20:01:00,40.5,16.2,29.73,NNW,338,0.0,0.0,37,0.00,CLR,,0.00,WeatherDisplay:10.37,2013-04-28 04:01:00,
2013-04-27 20:06:00,40.5,16.2,29.73,NNW,338,0.0,0.0,37,0.00,CLR,,0.00,WeatherDisplay:10.37,2013-04-28 04:06:00,
2013-04-27 20:11:00,40.4,16.1,29.73,NNW,339,0.0,0.0,37,0.00,CLR,,0.00,WeatherDisplay:10.37,2013-04-28 04:11:00,
2013-04-27 20:16:00,40.4,16.8,29.74,NNW,339,0.0,0.0,38,0.00,CLR,,0.00,WeatherDisplay:10.37,2013-04-28 04:16:00,
2013-04-27 20:21:00,40.2,16.0,29.74,NNW,337,0.0,0.0,37,0.00,CLR,,0.00,WeatherDisplay:10.37,2013-04-28 04:21:00,
2013-04-27 20:26:00,40.1,16.5,29.74,NNW,338,0.0,0.0,38,0.00,CLR,,0.00,WeatherDisplay:10.37,2013-04-28 04:26:00,
2013-04-27 20:31:00,40.0,15.8,29.74,NNW,337,0.0,0.0,37,0.00,CLR,,0.00,WeatherDisplay:10.37,2013-04-28 04:31:00,
2013-04-27 20:36:00,39.9,16.3,29.74,NNW,338,0.0,0.0,38,0.00,CLR,,0.00,WeatherDisplay:10.37,2013-04-28 04:36:00,
2013-04-27 20:41:00,39.7,16.1,29.74,NNW,339,0.0,0.0,38,0.00,CLR,,0.00,WeatherDisplay:10.37,2013-04-28 04:41:00,
2013-04-27 20:46:00,39.6,16.0,29.74,NNW,337,0.0,0.0,38,0.00,CLR,,0.00,WeatherDisplay:10.37,2013-04-28 04:46:00,
2013-04-27 20:51:00,39.5,16.0,29.74,NNW,338,0.0,0.0,38,0.00,CLR,,0.00,WeatherDisplay:10.37,2013-04-28 04:51:00,
2013-04-27 20:56:00,39.4,15.9,29.74,NNW,337,0.0,0.0,38,0.00,CLR,,0.00,WeatherDisplay:10.37,2013-04-28 04:56:00,
2013-04-27 21:01:00,39.3,15.8,29.74,NNW,336,0.0,0.0,38,0.00,CLR,,0.00,WeatherDisplay:10.37,2013-04-28 05:01:00,
2013-04-27 21:06:00,39.1,16.2,29.74,NNW,337,0.0,0.0,39,0.00,CLR,,0.00,WeatherDisplay:10.37,2013-04-28 05:06:00,
2013-04-27 21:11:00,38.8,15.9,29.75,NNW,337,0.0,0.0,39,0.00,CLR,,0.00,WeatherDisplay:10.37,2013-04-28 05:11:00,
2013-04-27 21:16:00,38.7,15.8,29.75,NNW,338,0.0,0.0,39,0.00,CLR,,0.00,WeatherDisplay:10.37,2013-04-28 05:16:00,
2013-04-27 21:21:00,38.6,15.1,29.75,NNW,338,0.0,0.0,38,0.00,CLR,,0.00,WeatherDisplay:10.37,2013-04-28 05:21:00,
2013-04-27 21:26:00,38.5,15.7,29.75,NNW,338,0.0,0.0,39,0.00,CLR,,0.00,WeatherDisplay:10.37,2013-04-28 05:26:00,
2013-04-27 21:31:00,38.5,15.1,29.75,NNW,338,0.0,0.0,38,0.00,CLR,,0.00,WeatherDisplay:10.37,2013-04-28 05:31:00,
2013-04-27 21:36:00,38.3,15.5,29.76,NNW,339,0.0,0.0,39,0.00,CLR,,0.00,WeatherDisplay:10.37,2013-04-28 05:36:00,
2013-04-27 21:41:00,38.2,15.4,29.75,NNW,339,0.0,0.0,39,0.00,CLR,,0.00,WeatherDisplay:10.37,2013-04-28 05:41:00,
2013-04-27 21:46:00,38.0,15.2,29.76,NNW,340,0.0,0.0,39,0.00,CLR,,0.00,WeatherDisplay:10.37,2013-04-28 05:46:00,
2013-04-27 21:51:00,37.9,15.1,29.76,NNW,339,0.0,0.0,39,0.00,CLR,,0.00,WeatherDisplay:10.37,2013-04-28 05:51:00,
2013-04-27 21:56:00,37.7,14.9,29.76,NNW,339,0.0,0.0,39,0.00,CLR,,0.00,WeatherDisplay:10.37,2013-04-28 05:56:00,
2013-04-27 22:01:00,37.5,14.8,29.76,NNW,339,0.0,0.0,39,0.00,CLR,,0.00,WeatherDisplay:10.37,2013-04-28 06:01:00,
2013-04-27 22:06:00,37.4,14.7,29.76,NNW,341,0.0,0.0,39,0.00,CLR,,0.00,WeatherDisplay:10.37,2013-04-28 06:06:00,
2013-04-27 22:11:00,37.3,14.6,29.77,NNW,339,0.0,0.0,39,0.00,CLR,,0.00,WeatherDisplay:10.37,2013-04-28 06:11:00,
2013-04-27 22:16:00,37.2,14.5,29.77,NNW,339,0.0,0.0,39,0.00,CLR,,0.00,WeatherDisplay:10.37,2013-04-28 06:16:00,
2013-04-27 22:21:00,37.1,14.4,29.77,NNW,339,0.0,0.0,39,0.00,CLR,,0.00,WeatherDisplay:10.37,2013-04-28 06:21:00,
2013-04-27 22:26:00,37.0,14.3,29.77,NNW,340,0.0,0.0,39,0.00,CLR,,0.00,WeatherDisplay:10.37,2013-04-28 06:26:00,
2013-04-27 22:31:00,37.2,14.5,29.77,NNW,339,2.3,2.3,39,0.00,CLR,,0.00,WeatherDisplay:10.37,2013-04-28 06:31:00,
2013-04-27 22:36:00,37.2,13.9,29.77,NNW,337,0.0,0.0,38,0.00,CLR,,0.00,WeatherDisplay:10.37,2013-04-28 06:36:00,
2013-04-27 22:41:00,37.0,14.9,29.77,NNW,339,0.0,0.0,40,0.00,CLR,,0.00,WeatherDisplay:10.37,2013-04-28 06:41:00,
2013-04-27 22:46:00,37.1,13.8,29.77,NNW,338,0.0,0.0,38,0.00,CLR,,0.00,WeatherDisplay:10.37,2013-04-28 06:46:00,
2013-04-27 22:51:00,36.9,14.2,29.77,NNW,336,0.0,0.0,39,0.00,CLR,,0.00,WeatherDisplay:10.37,2013-04-28 06:51:00,
2013-04-27 22:56:00,36.8,13.5,29.77,NNW,337,0.0,0.0,38,0.00,CLR,,0.00,WeatherDisplay:10.37,2013-04-28 06:56:00,
2013-04-27 23:01:00,36.6,13.9,29.78,NNW,337,0.0,0.0,39,0.00,CLR,,0.00,WeatherDisplay:10.37,2013-04-28 07:01:00,
2013-04-27 23:06:00,36.6,13.9,29.78,NNW,337,0.0,0.0,39,0.00,CLR,,0.00,WeatherDisplay:10.37,2013-04-28 07:06:00,
2013-04-27 23:11:00,36.4,13.2,29.78,NNW,337,0.0,0.0,38,0.00,CLR,,0.00,WeatherDisplay:10.37,2013-04-28 07:11:00,
2013-04-27 23:16:00,36.3,13.1,29.78,NNW,337,0.0,0.0,38,0.00,CLR,,0.00,WeatherDisplay:10.37,2013-04-28 07:16:00,
2013-04-27 23:21:00,36.1,13.5,29.78,NNW,337,0.0,0.0,39,0.00,CLR,,0.00,WeatherDisplay:10.37,2013-04-28 07:21:00,
2013-04-27 23:26:00,36.1,12.9,29.79,NNW,339,0.0,0.0,38,0.00,CLR,,0.00,WeatherDisplay:10.37,2013-04-28 07:26:00,
2013-04-27 23:31:00,35.9,12.7,29.79,NNW,340,0.0,0.0,38,0.00,CLR,,0.00,WeatherDisplay:10.37,2013-04-28 07:31:00,
2013-04-27 23:36:00,35.9,12.1,29.79,NNW,341,0.0,0.0,37,0.00,CLR,,0.00,WeatherDisplay:10.37,2013-04-28 07:36:00,
2013-04-27 23:41:00,35.7,12.5,29.79,NNW,341,0.0,0.0,38,0.00,CLR,,0.00,WeatherDisplay:10.37,2013-04-28 07:41:00,
2013-04-27 23:46:00,35.6,11.9,29.79,NNW,339,0.0,0.0,37,0.00,CLR,,0.00,WeatherDisplay:10.37,2013-04-28 07:46:00,
2013-04-27 23:51:00,35.6,12.5,29.79,NNW,338,0.0,0.0,38,0.00,CLR,,0.00,WeatherDisplay:10.37,2013-04-28 07:51:00,
2013-04-27 23:56:00,35.5,12.4,29.80,NNW,339,0.0,0.0,38,0.00,CLR,,0.00,WeatherDisplay:10.37,2013-04-28 07:56:00,